アトラス彗星

C/2024 J3 ( ATLAS )

English version
Home page
Updated on February 7, 2025

---------------------------------------------------------------------

・ プロフィール

発見日 2024年5月6日
発見光度 17.6等
発見者 Asteroid Terrestrial-Impact Last Alert System (ATLAS) search program

・ 写真集

・ 軌道要素

Epoch 2024 Oct. 17.0 TT = JDT 2460600.5
T 2026 Nov. 25.25361 TT                                 Rudenko
q   3.8646160            (2000.0)            P               Q
z  -0.0002580      Peri.   74.09220     +0.30481246     -0.19908443
 +/-0.0000156      Node   285.96239     -0.55214475     +0.75986865
e   1.0009972      Incl.   75.63253     +0.77603192     +0.61884168
From 195 observations 2024 May 6-Oct. 24, mean residual 0".5.

・ 星図

・ 光度変化

        m1 = 4.2 + 5 logΔ + 10.0 log r

---------------------------------------------------------------------

軌道要素はM.P.E.C. 2024-U109に掲載されたものです。
星図はステラナビゲータ Ver.11 (アストロアーツ) で作成したものです。
光度グラフはComet for Windowsで作成したものです。

---------------------------------------------------------------------

Copyright(C) Seiichi Yoshida (comet@aerith.net). All rights reserved.